Location: ShareBrained
(45.5589°N, 122.6491°W)
Time: 15:03:23
(UTC-08:00)

NOAA 19 - Pass Details

Date: 23 January 2020
Orbit: 840 x 861 km, 99.2° (Epoch: 26 February)

Event Time Altitude Azimuth Distance (km) Brightness Sun altitude
Rises 06:39:07 0° 10° (N) 3,409 8.3 -10.9°
Reaches altitude 10° 06:41:32 10° 7° (N) 2,469 7.5 -10.5°
Maximum altitude 06:46:50 55° 291° (WNW) 1,009 5.3 -9.6°
Drops below altitude 10° 06:52:07 10° 215° (SW) 2,454 7.5 -8.8°
Sets 06:54:31 0° 211° (SSW) 3,386 8.2 -8.4°
